Weather History for KTTN - August, 2012

Change the Weather History Date:

Saturday, August 25, 2012

  Actual Average Record
Temperature  
Mean Temperature 74 °F 73 °F  
Max Temperature 81 °F 83 °F 94 °F (1975)
Min Temperature 67 °F 63 °F 48 °F (1940)
Degree Days  
Heating Degree Days 0 0  
Month to date heating degree days 0 0  
Since 1 June heating degree days 22 24  
Since 1 July heating degree days 0 0  
Cooling Degree Days 9 8  
Month to date cooling degree days 262 235  
Year to date cooling degree days 1045 812  
Since 1 June cooling degree days 889 755  
Growing Degree Days 24 (Base 50)    
Moisture  
Dew Point 65 °F    
Average Humidity 71    
Maximum Humidity 87    
Minimum Humidity 54    
Precipitation  
Precipitation T in 0.13 in 2.40 in (1958)
Month to date precipitation 3.80 3.45  
Year to date precipitation 24.84 30.33  
Sea Level Pressure  
Sea Level Pressure 30.21 in    
Wind  
Wind Speed 6 mph (ESE)    
Max Wind Speed 14 mph    
Max Gust Speed 18 mph    
Visibility 9 miles    
Events Rain    
T = Trace of Precipitation, MM = Missing Value Source: NWS Daily Summary

Daily Weather History Graph

Daily Weather History Graph

Search for Another Location

Airport or City:

Trip Planner

Search our weather history database for the weather conditions in past years. The results will help you decide how hot, cold, wet, or windy it might be!

Date:

Astronomy

Aug. 25, 2012 Rise Set
Actual Time 6:20 AM EDT 7:41 PM EDT
Civil Twilight 5:52 AM EDT 8:09 PM EDT
Nautical Twilight 5:18 AM EDT 8:43 PM EDT
Astronomical Twilight 4:42 AM EDT 9:18 PM EDT
Moon 3:12 PM EDT (8/25) 12:01 AM EDT (8/25)
Length of Visible Light 14h 17m
Length of Day
13h 20m
Waxing Gibbous, 62% of the Moon is Illuminated
Aug 25
Waxing Gibbous
Aug 31
Full
Sep 8
Last Quarter
Sep 15
New
Sep 22
First Quarter

Hourly Weather History & Observations

Time (EDT) Temp. Heat Index Dew Point Humidity Pressure Visibility Wind Dir Wind Speed Gust Speed Precip Events Conditions
12:53 AM 73.0 °F - 64.0 °F 73% 30.17 in 10.0 mi Calm Calm - N/A   Clear
1:53 AM 70.0 °F - 64.9 °F 84% 30.17 in 10.0 mi Calm Calm - N/A   Clear
2:53 AM 70.0 °F - 64.9 °F 84% 30.17 in 9.0 mi Calm Calm - N/A   Clear
3:53 AM 69.1 °F - 64.9 °F 87% 30.17 in 8.0 mi Calm Calm - N/A   Clear
4:53 AM 69.1 °F - 64.0 °F 84% 30.18 in 8.0 mi NNE 3.5 mph - N/A   Clear
5:53 AM 68.0 °F - 64.0 °F 87% 30.18 in 8.0 mi Calm Calm - N/A   Clear
6:53 AM 69.8 °F - 64.4 °F 83% 30.22 in 7.0 mi Calm Calm - N/A   Clear
7:53 AM 71.1 °F - 64.9 °F 81% 30.21 in 6.0 mi Calm Calm - N/A   Haze
8:53 AM 73.0 °F - 66.0 °F 79% 30.22 in 8.0 mi East 4.6 mph - N/A   Clear
9:53 AM 75.9 °F - 64.9 °F 69% 30.23 in 10.0 mi East 5.8 mph - N/A   Clear
10:53 AM 79.0 °F - 68.0 °F 69% 30.23 in 10.0 mi East 6.9 mph - N/A   Clear
12:53 PM 80.1 °F 81.7 °F 64.0 °F 58% 30.21 in 10.0 mi SE 8.1 mph - N/A   Partly Cloudy
1:53 PM 81.0 °F 82.2 °F 63.0 °F 54% 30.21 in 10.0 mi SE 6.9 mph - N/A   Clear
2:53 PM 80.1 °F 81.5 °F 63.0 °F 56% 30.20 in 10.0 mi ESE 10.4 mph - N/A   Partly Cloudy
3:53 PM 78.1 °F - 64.9 °F 64% 30.21 in 10.0 mi SE 6.9 mph - 0.00 in Rain Light Rain
4:53 PM 78.1 °F - 66.0 °F 66% 30.22 in 10.0 mi ESE 11.5 mph - 0.00 in   Mostly Cloudy
5:53 PM 77.0 °F - 66.0 °F 69% 30.21 in 10.0 mi SE 10.4 mph - N/A   Scattered Clouds
6:53 PM 75.9 °F - 66.9 °F 74% 30.22 in 10.0 mi ESE 9.2 mph - N/A   Scattered Clouds
7:53 PM 73.9 °F - 64.9 °F 73% 30.23 in 10.0 mi East 6.9 mph - N/A   Partly Cloudy
8:53 PM 72.0 °F - 66.0 °F 81% 30.25 in 10.0 mi ESE 4.6 mph - N/A   Mostly Cloudy
9:53 PM 71.1 °F - 66.0 °F 84% 30.23 in 10.0 mi ESE 8.1 mph - N/A   Clear
10:53 PM 70.0 °F - 64.9 °F 84% 30.23 in 10.0 mi ESE 6.9 mph - N/A   Clear
11:53 PM 69.1 °F - 64.0 °F 84% 30.23 in 10.0 mi East 5.8 mph - N/A   Scattered Clouds